• In Deutschland
  • Länderverzeichnis
  • Für 7 Tage
  • Wassertemperatur
  • Satellitenkarten
  • Wetterkarte
  • Widgets
  • user-avatar
    Anmelden

    Stündliche Wetter Lankaran

    Heute, 19 August, Samstag

    Zeit Temperatur Niederschläge Wind Luftdruck Luftfeuchtigkeit
    00:00 +19°C° 0 mm 1 m/S 635 mmHg 75%
    01:00 +18°C° 0 mm 1 m/S 635 mmHg 76%
    02:00 +18°C° 0 mm 1 m/S 635 mmHg 76%
    03:00 +18°C° 0 mm 1 m/S 635 mmHg 77%
    04:00 +18°C° 0 mm 1 m/S 635 mmHg 76%
    05:00 +19°C° 0 mm 1 m/S 636 mmHg 76%
    06:00 +18°C° 0 mm 2 m/S 636 mmHg 75%
    07:00 +20°C° 0 mm 2 m/S 636 mmHg 66%
    08:00 +23°C° 0 mm 2 m/S 637 mmHg 57%
    09:00 +25°C° 0 mm 3 m/S 638 mmHg 46%
    10:00 +26°C° 0 mm 3 m/S 638 mmHg 42%
    11:00 +27°C° 0 mm 4 m/S 638 mmHg 38%
    12:00 +28°C° 0 mm 4 m/S 638 mmHg 34%
    13:00 +28°C° 0 mm 4 m/S 638 mmHg 33%
    14:00 +28°C° 0 mm 4 m/S 638 mmHg 33%
    15:00 +28°C° 0 mm 4 m/S 638 mmHg 33%
    16:00 +26°C° 0 mm 4 m/S 637 mmHg 36%
    17:00 +25°C° 0 mm 3 m/S 637 mmHg 40%
    18:00 +22°C° 0 mm 3 m/S 637 mmHg 43%
    19:00 +21°C° 0 mm 2 m/S 637 mmHg 47%
    20:00 +19°C° 0 mm 2 m/S 637 mmHg 50%
    21:00 +18°C° 0 mm 2 m/S 637 mmHg 54%
    22:00 +18°C° 0 mm 2 m/S 637 mmHg 51%
    23:00 +17°C° 0 mm 2 m/S 636 mmHg 48%

    Morgen, 20 August, Sonntag

    Zeit Temperatur Niederschläge Wind Luftdruck Luftfeuchtigkeit
    00:00 +17°C° 0 mm 2 m/S 636 mmHg 46%
    01:00 +17°C° 0 mm 2 m/S 636 mmHg 45%
    02:00 +17°C° 0 mm 2 m/S 636 mmHg 43%
    03:00 +16°C° 0 mm 2 m/S 636 mmHg 42%
    04:00 +17°C° 0 mm 2 m/S 636 mmHg 42%
    05:00 +17°C° 0 mm 2 m/S 636 mmHg 41%
    06:00 +18°C° 0 mm 2 m/S 636 mmHg 40%
    07:00 +20°C° 0 mm 2 m/S 637 mmHg 38%
    08:00 +23°C° 0 mm 2 m/S 637 mmHg 35%
    09:00 +26°C° 0 mm 3 m/S 638 mmHg 32%
    10:00 +27°C° 0 mm 3 m/S 638 mmHg 29%
    11:00 +28°C° 0 mm 3 m/S 638 mmHg 26%
    12:00 +29°C° 0 mm 4 m/S 638 mmHg 23%
    13:00 +29°C° 0 mm 4 m/S 637 mmHg 23%
    14:00 +29°C° 0 mm 4 m/S 637 mmHg 23%
    15:00 +29°C° 0 mm 4 m/S 637 mmHg 23%
    16:00 +27°C° 0 mm 4 m/S 636 mmHg 26%
    17:00 +26°C° 0 mm 3 m/S 636 mmHg 30%
    18:00 +24°C° 0 mm 3 m/S 636 mmHg 33%
    19:00 +23°C° 0 mm 2 m/S 635 mmHg 36%
    20:00 +20°C° 0 mm 2 m/S 635 mmHg 39%
    21:00 +19°C° 0 mm 2 m/S 635 mmHg 42%
    22:00 +19°C° 0 mm 2 m/S 635 mmHg 42%
    23:00 +19°C° 0 mm 1 m/S 635 mmHg 42%

    übermorgen, 21 August, Montag

    Zeit Temperatur Niederschläge Wind Luftdruck Luftfeuchtigkeit
    00:00 +19°C° 0 mm 1 m/S 635 mmHg 43%
    01:00 +19°C° 0 mm 1 m/S 635 mmHg 44%
    02:00 +19°C° 0 mm 1 m/S 634 mmHg 45%
    03:00 +18°C° 0 mm 1 m/S 634 mmHg 47%
    04:00 +19°C° 0 mm 1 m/S 634 mmHg 45%
    05:00 +19°C° 0 mm 1 m/S 635 mmHg 44%
    06:00 +20°C° 0 mm 1 m/S 635 mmHg 43%
    07:00 +22°C° 0 mm 1 m/S 635 mmHg 39%
    08:00 +24°C° 0 mm 2 m/S 636 mmHg 36%
    09:00 +26°C° 0 mm 2 m/S 636 mmHg 33%
    10:00 +27°C° 0 mm 3 m/S 636 mmHg 31%
    11:00 +28°C° 0 mm 3 m/S 636 mmHg 29%
    12:00 +29°C° 0 mm 3 m/S 636 mmHg 28%
    13:00 +29°C° 0 mm 3 m/S 636 mmHg 28%
    14:00 +29°C° 0 mm 4 m/S 635 mmHg 29%
    15:00 +29°C° 0 mm 4 m/S 635 mmHg 29%
    16:00 +28°C° 0 mm 3 m/S 635 mmHg 34%
    17:00 +26°C° 0 mm 3 m/S 634 mmHg 39%
    18:00 +25°C° 0 mm 2 m/S 634 mmHg 44%
    19:00 +23°C° 0 mm 2 m/S 634 mmHg 48%
    20:00 +21°C° 0 mm 2 m/S 634 mmHg 53%
    21:00 +21°C° 0 mm 1 m/S 634 mmHg 57%
    22:00 +20°C° 0 mm 1 m/S 633 mmHg 57%
    23:00 +20°C° 0 mm 1 m/S 633 mmHg 56%

    22 August, Dienstag

    Zeit Temperatur Niederschläge Wind Luftdruck Luftfeuchtigkeit
    00:00 +20°C° 0 mm 1 m/S 633 mmHg 55%
    01:00 +19°C° 0 mm 1 m/S 633 mmHg 55%
    02:00 +19°C° 0 mm 1 m/S 633 mmHg 55%
    03:00 +17°C° 0 mm 0 m/S 633 mmHg 54%
    04:00 +19°C° 0 mm 1 m/S 633 mmHg 52%
    05:00 +20°C° 0 mm 1 m/S 633 mmHg 50%
    06:00 +20°C° 0 mm 1 m/S 633 mmHg 48%
    07:00 +23°C° 0 mm 1 m/S 634 mmHg 43%
    08:00 +25°C° 0 mm 2 m/S 635 mmHg 37%
    09:00 +27°C° 0 mm 2 m/S 635 mmHg 31%
    10:00 +28°C° 0 mm 2 m/S 635 mmHg 29%
    11:00 +29°C° 0 mm 3 m/S 635 mmHg 27%
    12:00 +30°C° 0 mm 3 m/S 635 mmHg 24%
    13:00 +31°C° 0 mm 3 m/S 635 mmHg 24%
    14:00 +31°C° 0 mm 3 m/S 635 mmHg 23%
    15:00 +31°C° 0 mm 3 m/S 634 mmHg 22%
    16:00 +29°C° 0 mm 3 m/S 634 mmHg 26%
    17:00 +28°C° 0 mm 3 m/S 633 mmHg 30%
    18:00 +26°C° 0 mm 2 m/S 633 mmHg 33%
    19:00 +24°C° 0 mm 2 m/S 633 mmHg 37%
    20:00 +23°C° 0 mm 1 m/S 633 mmHg 41%
    21:00 +21°C° 0 mm 1 m/S 633 mmHg 46%
    22:00 +21°C° 0 mm 1 m/S 633 mmHg 45%
    23:00 +21°C° 0 mm 1 m/S 633 mmHg 45%

    23 August, Mittwoch

    Zeit Temperatur Niederschläge Wind Luftdruck Luftfeuchtigkeit
    00:00 +20°C° 0 mm 1 m/S 633 mmHg 45%
    01:00 +20°C° 0 mm 1 m/S 633 mmHg 45%
    02:00 +19°C° 0 mm 1 m/S 633 mmHg 45%
    03:00 +19°C° 0 mm 1 m/S 633 mmHg 45%
    04:00 +19°C° 0 mm 1 m/S 633 mmHg 44%
    05:00 +20°C° 0 mm 1 m/S 634 mmHg 43%
    06:00 +20°C° 0 mm 1 m/S 634 mmHg 41%
    07:00 +23°C° 0 mm 2 m/S 635 mmHg 37%
    08:00 +25°C° 0 mm 2 m/S 636 mmHg 33%
    09:00 +27°C° 0 mm 3 m/S 637 mmHg 29%
    10:00 +28°C° 0 mm 3 m/S 637 mmHg 27%
    11:00 +30°C° 0 mm 3 m/S 637 mmHg 24%
    12:00 +32°C° 0 mm 4 m/S 637 mmHg 22%
    13:00 +32°C° 0 mm 4 m/S 637 mmHg 23%
    14:00 +30°C° 0 mm 4 m/S 636 mmHg 24%
    15:00 +30°C° 0 mm 4 m/S 636 mmHg 25%
    16:00 +29°C° 0 mm 3 m/S 636 mmHg 31%
    17:00 +27°C° 0 mm 3 m/S 635 mmHg 38%
    18:00 +25°C° 0 mm 2 m/S 635 mmHg 44%
    19:00 +23°C° 0 mm 2 m/S 635 mmHg 49%
    20:00 +21°C° 0 mm 2 m/S 635 mmHg 54%
    21:00 +21°C° 0 mm 1 m/S 635 mmHg 59%
    22:00 +20°C° 0 mm 1 m/S 635 mmHg 57%
    23:00 +20°C° 0 mm 1 m/S 635 mmHg 55%

    24 August, Donnerstag

    Zeit Temperatur Niederschläge Wind Luftdruck Luftfeuchtigkeit
    00:00 +20°C° 0 mm 1 m/S 635 mmHg 53%
    01:00 +19°C° 0 mm 1 m/S 635 mmHg 53%
    02:00 +18°C° 0 mm 2 m/S 635 mmHg 54%
    03:00 +17°C° 0 mm 2 m/S 635 mmHg 54%
    04:00 +18°C° 0 mm 2 m/S 635 mmHg 54%
    05:00 +18°C° 0 mm 2 m/S 636 mmHg 55%
    06:00 +18°C° 0 mm 2 m/S 636 mmHg 55%
    07:00 +20°C° 0 mm 3 m/S 637 mmHg 46%
    08:00 +24°C° 0 mm 3 m/S 638 mmHg 37%
    09:00 +26°C° 0 mm 3 m/S 639 mmHg 28%
    10:00 +27°C° 0 mm 4 m/S 639 mmHg 25%
    11:00 +28°C° 0 mm 4 m/S 639 mmHg 21%
    12:00 +30°C° 0 mm 5 m/S 639 mmHg 18%
    13:00 +29°C° 0 mm 5 m/S 639 mmHg 18%
    14:00 +29°C° 0 mm 5 m/S 639 mmHg 18%
    15:00 +29°C° 0 mm 5 m/S 639 mmHg 18%
    16:00 +27°C° 0 mm 4 m/S 638 mmHg 22%
    17:00 +25°C° 0 mm 3 m/S 638 mmHg 27%
    18:00 +22°C° 0 mm 3 m/S 638 mmHg 32%
    19:00 +20°C° 0 mm 2 m/S 637 mmHg 37%
    20:00 +19°C° 0 mm 2 m/S 637 mmHg 41%
    21:00 +17°C° 0 mm 2 m/S 637 mmHg 46%
    22:00 +17°C° 0 mm 2 m/S 637 mmHg 43%
    23:00 +18°C° 0 mm 1 m/S 637 mmHg 39%
    Mehr zeigen